This demonstration page uses our WeatherBlox Daily Observations layout. Learn more.

Left ArrowRight Arrow

36.17497, -115.13722

Hourly Observations for July 10, 2020

Temp ( °F °C ) Dew Point ( °F °C ) Humidity (%) Winds ( mph kmh ) Pressure ( in mb ) Visibility ( mi km ) Precip ( " mm )
12:53 am 00:53 Clear 86 30 22 -5.6 9 9 Calm 29.83 1010 10 16 0.00 0.00
1:53 am 01:53 Clear 82 27.8 21 -6.1 10 10 WNW 5 7 29.85 1011 10 16 0.00 0.00
2:53 am 02:53 Clear 80 26.7 22 -5.6 11 11 NW 8 13 29.86 1011 10 16 0.00 0.00
3:53 am 03:53 Clear 78 25.6 26 -3.3 15 15 NW 5 7 29.88 1012 10 16 0.00 0.00
4:53 am 04:53 Clear 77 25 26 -3.3 15 15 NNW 8 13 29.88 1012 10 16 0.00 0.00
5:53 am 05:53 Sunny 75 23.9 21 -6.1 13 13 NW 7 11 29.92 1013 10 16 0.00 0.00
6:53 am 06:53 Sunny 81 27.2 22 -5.6 11 11 NW 7 11 29.93 1014 10 16 0.00 0.00
7:53 am 07:53 Sunny 87 30.6 23 -5 9 9 NNE 3 6 29.96 1014 10 16 0.00 0.00
8:53 am 08:53 Sunny 90 32.2 22 -5.6 8 8 Calm 29.98 1015 10 16 0.00 0.00
9:53 am 09:53 Sunny 93 33.9 20 -6.7 7 7 E 3 6 29.98 1015 10 16 0.00 0.00
10:53 am 10:53 Sunny 97 36.1 25 -3.9 7 7 undefined N/A 29.98 1015 10 16 0.00 0.00
11:53 am 11:53 Sunny 101 38.3 26 -3.3 7 7 ESE 10 17 29.96 1015 10 16 0.00 0.00
12:53 pm 12:53 Sunny 104 40 25 -3.9 6 6 VRB 5 7 29.95 1014 10 16 0.00 0.00
1:53 pm 13:53 Sunny 107 41.7 28 -2.2 6 6 ESE 12 19 29.93 1014 10 16 0.00 0.00
2:53 pm 14:53 Sunny 108 42.2 33 0.6 7 7 SW 12 19 29.91 1013 10 16 0.00 0.00
3:53 pm 15:53 Sunny 109 42.8 35 1.7 8 8 S 13 20 29.88 1012 10 16 0.00 0.00
4:53 pm 16:53 Sunny 109 42.8 34 1.1 7 7 VRB 3 6 29.87 1012 10 16 0.00 0.00
5:53 pm 17:53 Sunny 109 42.8 37 2.8 8 8 SW 8 13 29.86 1011 10 16 0.00 0.00
6:53 pm 18:53 Sunny 108 42.2 37 2.8 9 9 WSW 9 15 29.86 1011 10 16 0.00 0.00
7:53 pm 19:53 Sunny 106 41.1 36 2.2 9 9 WSW 9 15 29.85 1011 10 16 0.00 0.00
8:53 pm 20:53 Clear 103 39.4 36 2.2 10 10 WSW 8 13 29.85 1011 10 16 0.00 0.00
9:53 pm 21:53 Clear 102 38.9 36 2.2 10 10 WSW 9 15 29.87 1012 10 16 0.00 0.00
10:53 pm 22:53 Clear 100 37.8 37 2.8 11 11 NW 6 9 29.88 1012 10 16 0.00 0.00
11:53 pm 23:53 Clear 96 35.6 38 3.3 13 13 Calm 29.89 1012 10 16 0.00 0.00

Powered by AerisWeather